STARLINK-30094 (56305 NORAD) Tracking and Keplerian Element Data

This shows tracking and keplerian element data for the satellite.

Feedback or suggestion? Click here.




ElementValue
Catalog56305
NameSTARLINK-30094
Epoch Orbit325
Epoch Day127.25001157
Epoch Year2023
RAAN97.2521
Inclination43.0024
Eccentricity0.0001228
Argument of Perigee266.7052
Mean Anonmoly330.7734
Mean Motion15.51943596
Decay Rate-0.00637248
L11 56305U 23056V 23127.25001157 -.00637248 00000+0 -11205-1 0 9992
L22 56305 43.0024 97.2521 0001228 266.7052 330.7734 15.51943596 3256



Live tracking and technical data element details for STARLINK-30094 (NORAD 56305). STARLINK-30094 can be tracked NOW for your location showing map with azimuth and elevation plus other details from your city location.







IsCatalogInMostPopularTable: catalog: 56305, numindb: 5
Update: records affected: 1



GetName: 56305 STARLINK-30094

Hit Count: updated at: Wed, 07 Jun 2023 10:03:51 GMT